Retour au catalogue

DELTA 1 DEB

ActifPO
NORAD 21452·DEBRIS·🇺🇸 United States

Lancé Jun 12, 1975 depuis Vandenberg Space Force Base

Loading…

Prochains Passages (prochaines 24 heures)

TLE

FraisSource: Space-Track

Époque: Sep 14, 2026, 10:43 UTC

1 21452U 75052EL  26257.44694769  .00001947  00000-0  82755-2 0  9994
2 21452  99.7488 124.8484 0580284  88.8236  31.4650 12.39714095585877

Suivez DELTA 1 DEB en temps réel avec AllMySat

Download on the App Store